SCP
0 0 0 0 0 0 0 0 0 0 0 0 0 0 0 0 0 0 0 0 0 0 0 0 0 0 0 0 0 0 0 0 0 0 0 0 0 0
0 0 0 0 0 0 0 0 0 0 0 0 0 0 0 0 0 0 0 0 0 0 0 0 0 0 0 0 0 0 0 0 0 0 0 0 0 0
0 0 0 0 0 0 0 0 0 0 0 0 0 0 0 0 0 0 0 0 0 0 0 0 0 0 0 0 0 0 0 0 0 0 0 0 0 0
0 0 0 0 0 0 0 0 0 0 0 0 0 0 0 0 0 0 0 0 0 0 0 0 0 0 0 0 0 0 0 0 0 0 0 0 0 0
0 0 0 0 0 0 0 0 0 0 0 0 0 0 0 0 0 0 0 0 0 0 0 0 0 0 0 0 0 0 0 0 0 0 0 0 0 0
0 0 0 0 0 0 0 0 0 0 0 0 0 0 0 0 0 0 0 0 0 0 0 0 0 0 0 0 0 0 0 0 0 0 0 0 0 0
0 0 0 0 0 0 0 0 0 0 0 0 0 0 0 0 0 0 0 0 0 0 0 0 0 0 0 0 0 0 0 0 0 0 0 0 0 0
0 0 0 0 0 0 0 0 0 0 0 0 0 0 0 0 0 0 0 0 0 0 0 0 0 0 0 0 0 0 0 0 0 0 0 0 0 0
0 0 0 0 0 0 0 0 0 0 0 0 0 0 0 0 0 0 0 0 0 0 0 0 0 0 0 0 0 0 0 0 0 0 0 0 0 0
0 0 0 0 0 0 0 0 0 0 0 0 0 0 0 0 0 0 0 0 0 0 0 0 0 0 0 0 0 0 0 0 0 0 0 0 0 0
0 0 0 0 0 0 0 0 0 0 0 0 0 0 0 0 0 0 0 0 0 0 0 0 0 0 0 0 0 0 0 0 0 0 0 0 0 0
0 0 0 0 0 0 0 0 0 0 0 0 0 0 0 0 0 0 0 0 0 0 0 0 0 0 0 0 0 0 0 0 0 0 0 0 0 0
0 0 0 0 0 0 0 0 0 0 0 0 0 0 0 0 0 0 0 0 0 0 0 0 0 0 0 0 0 0 0 0 0 0 0 0 0 0
0 0 0 0 0 0 0 0 0 0 0 0 0 0 0 0 0 0 0 0 0 0 0 0 0 0 0 0 0 0 0 0 0 0 0 0 0 0
0 0 0 0 0 0 0 0 0 0 0 0 0 0 0 0 0 0 0 0 0 0 0 0 0 0 0 0 0 0 0 0 0 0 0 0 0 0
0 0 0 0 0 0 0 0 0 0 0 0 0 0 0 0 0 0 0 0 0 0 0 0 0 0 0 0 0 0 0 0 0 0 0 0 0 0
0 0 0 0 0 0 0 0 0 0 0 0 0 0 0 0 0 0 0 0 0 0 0 0 0 0 0 0 0 0 0 0 0 0 0 0 0 0
0 0 0 0 0 0 0 0 0 0 0 0 0 0 0 0 0 0 0 0 0 0 0 0 0 0 0 0 0 0 0 0 0 0 0 0 0 0
0 0 0 0 0 0 0 0 0 0 0 0 0 0 0 0 0 0 0 0 0 0 0 0 0 0 0 0 0 0 0 0 0 0 0 0 0 0
0 0 0 0 0 0 0 0 0 0 0 0 0 0 0 0 0 0 0 0 0 0 0 0 0 0 0 0 0 0 0 0 0 0 0 0 0 0
0 0 0 0 0 0 0 0 0 0 0 0 0 0 0 0 0 0 0 0 0 0 0 0 0 0 0 0 0 0 0 0 0 0 0 0 0 0
0 0 0 0 0 0 0 0 0 0 0 0 0 0 0 0 0 0 0 0 0 0 0 0 0 0 0 0 0 0 0 0 0 0 0 0 0 0
0 0 0 0 0 0 0 0 0 0 0 0 0 0 0 0 0 0 0 0 0 0 0 0 0 0 0 0 0 0 0 0 0 0 0 0 0 0
Wind_Speed
15 15 13 11 11 11 11 11 12 14 15 15 12 12 11 12 16 15 16 23 27 28 29 30 30 30 30 30 30 29 28 27 27 26 25 25 24 24
12 14 14 11 11 11 11 11 12 14 16 13 13 14 15 13 18 17 17 25 27 28 29 29 30 30 30 30 29 28 28 27 26 26 25 25 23 23
15 15 16 15 12 11 11 12 12 13 16 16 14 15 18 18 16 16 16 16 16 25 27 28 29 29 29 29 28 28 27 26 26 26 25 24 22 21
17 16 17 13 15 13 12 14 13 14 15 19 16 15 19 18 17 17 15 14 15 22 26 28 28 29 28 28 27 27 26 25 25 25 24 24 23 21
17 17 16 15 16 14 14 14 12 13 14 16 17 15 15 14 16 16 17 14 15 17 22 24 26 27 27 27 27 27 26 26 25 25 25 24 22 22
16 16 16 16 16 15 13 15 14 15 15 15 15 15 14 15 14 13 13 12 13 13 16 18 21 24 26 26 26 25 25 25 25 25 24 23 21 20
16 16 16 18 20 17 13 14 14 13 13 14 14 14 13 12 12 11 13 13 13 12 12 12 13 12 14 18 21 22 23 24 24 24 24 22 21 20
16 15 16 18 22 25 26 25 21 17 15 14 14 15 15 14 12 12 13 13 14 10 11 13 11 12 12 11 16 20 22 23 23 23 23 22 21 21
15 14 12 13 18 15 19 23 23 26 25 18 17 17 16 15 15 15 14 15 15 12 12 14 12 13 11 12 20 21 22 22 23 23 23 22 21 21
15 15 14 14 14 15 14 15 16 17 18 15 15 16 16 16 15 15 15 16 16 12 12 13 12 12 12 11 17 19 20 20 21 22 23 22 21 21
15 14 14 14 18 20 16 15 16 15 18 22 23 22 24 24 18 12 12 12 13 11 9 10 11 11 12 11 11 15 17 18 19 19 20 20 20 19
12 13 18 18 19 20 15 14 16 14 12 12 14 16 16 16 19 13 11 11 11 10 7 7 9 9 9 8 8 8 9 13 16 18 18 18 19 13
10 9 10 18 20 20 18 13 15 14 11 11 11 10 10 9 10 9 9 9 11 11 8 7 9 9 9 9 8 8 7 7 8 10 14 17 18 16
10 9 9 15 17 18 15 14 17 15 9 9 9 9 9 9 8 9 10 11 12 13 12 11 10 10 10 11 10 8 7 7 8 8 8 12 15 19
9 13 13 15 15 12 13 15 13 9 8 9 9 10 9 9 9 8 9 10 12 13 12 14 13 11 11 12 11 10 9 8 8 8 7 8 8 10
10 12 14 14 11 10 11 10 8 7 8 9 9 9 9 8 8 8 8 8 9 9 10 12 13 13 12 13 12 12 10 8 6 6 7 8 8 9
8 6 6 6 7 7 7 7 6 7 7 7 8 8 8 8 8 8 8 8 9 10 9 7 9 11 13 12 12 12 11 10 10 9 8 8 8 9
10 7 7 7 7 7 6 6 7 7 7 7 8 8 8 8 8 8 8 9 9 9 9 8 7 7 8 11 16 14 11 10 9 9 9 8 9 9
9 7 7 7 6 6 6 7 7 7 6 7 8 8 8 8 8 9 8 9 9 9 9 8 8 8 9 9 8 14 11 9 8 8 8 9 9 8
7 7 7 6 6 6 6 6 6 6 6 7 7 8 8 8 9 9 9 10 10 10 9 8 8 8 9 9 8 7 13 11 9 8 8 8 8 9
7 7 6 6 6 6 6 6 6 7 7 7 7 8 8 8 9 9 9 13 11 10 10 9 8 11 9 8 9 9 8 13 14 9 7 7 7 7
6 6 6 6 6 5 6 6 6 7 7 7 7 7 7 8 9 10 10 10 9 9 10 9 8 8 8 9 10 10 9 8 12 18 18 14 7 7
6 6 5 5 6 5 5 6 8 7 7 7 7 7 7 8 8 9 9 9 9 10 10 9 7 7 8 9 9 9 11 9 7 8 10 18 23 22
Wind_Direction
227 230 233 238 240 244 247 251 262 276 279 282 282 280 278 275 274 276 276 278 281 283 284 284 285 286 285 285 286 286 287 285 286 284 280 278 274 278
226 232 234 237 241 243 245 248 250 259 272 278 281 281 281 277 276 276 276 278 279 280 282 283 284 284 284 284 284 283 283 282 284 284 279 277 276 277
224 229 234 236 241 243 245 247 249 252 263 273 276 279 280 278 277 275 274 275 276 277 280 282 282 282 282 282 281 280 281 281 282 281 279 277 278 280
225 228 233 234 238 242 245 248 250 252 259 271 276 278 278 278 278 277 276 273 273 277 279 280 281 280 280 280 279 279 279 280 279 279 278 277 278 280
225 228 232 233 239 241 243 248 251 254 256 263 271 274 276 276 279 276 275 273 274 275 277 278 278 278 279 278 277 276 276 275 275 275 274 275 275 277
226 229 232 232 237 241 245 249 252 256 257 260 266 271 274 276 276 277 278 276 276 277 277 276 276 277 276 275 273 272 272 272 271 272 271 271 272 272
227 229 232 233 237 240 241 246 250 253 257 261 266 271 274 276 277 279 279 281 278 277 277 277 277 274 274 272 269 267 269 270 268 268 268 268 268 267
227 231 234 238 243 247 251 254 254 258 263 267 271 273 276 279 281 279 280 281 282 278 278 279 278 275 272 267 268 269 268 267 266 265 264 263 263 262
224 229 233 237 242 247 255 260 264 265 265 267 270 273 278 279 281 279 276 276 278 282 281 279 277 275 274 271 271 269 267 266 264 262 262 262 260 258
225 229 235 240 241 246 251 257 259 261 264 264 265 270 272 275 273 273 276 277 276 272 268 273 277 278 280 275 271 266 266 266 263 260 259 256 254 255
226 229 235 241 246 250 255 259 262 264 264 263 264 266 268 271 272 273 272 273 276 276 270 267 275 283 281 275 269 267 266 266 265 262 259 253 251 251
225 228 234 239 247 252 255 260 266 271 271 271 268 271 273 273 274 269 269 268 274 276 265 264 275 284 282 273 273 272 266 264 264 263 260 256 250 246
225 226 229 239 247 254 258 262 268 276 276 273 272 272 269 265 262 259 254 255 262 264 267 268 271 272 270 280 282 277 272 270 267 262 257 253 247 241
225 229 233 242 250 257 262 266 275 282 277 275 274 274 274 273 271 266 258 252 253 260 265 264 264 265 269 273 273 273 272 269 266 264 258 251 243 239
225 232 239 246 253 259 263 270 276 274 273 273 274 277 280 281 279 273 264 255 255 254 254 250 250 254 255 261 268 272 277 275 266 260 258 251 238 230
230 236 241 247 250 257 264 266 262 262 268 272 276 280 282 280 275 274 273 271 268 265 251 245 245 247 251 255 260 265 262 263 265 261 261 256 246 235
212 220 226 233 239 246 251 255 256 259 263 268 275 279 280 279 277 276 273 272 270 272 272 257 243 242 247 253 256 256 255 253 253 259 259 256 245 235
209 220 225 232 241 249 254 257 258 260 265 270 274 276 278 280 281 279 273 270 271 272 272 270 262 255 249 243 233 248 250 250 248 246 246 247 243 235
216 222 228 234 241 247 252 256 260 263 267 269 271 274 276 278 280 280 277 275 273 274 273 269 262 256 258 264 245 221 235 245 244 240 238 237 237 234
217 223 228 232 238 244 248 254 260 264 264 267 270 272 274 276 278 279 278 278 279 278 275 267 257 252 256 266 271 257 233 240 243 240 238 237 239 248
213 220 226 230 236 242 247 253 258 262 265 269 271 272 273 274 276 279 280 281 280 277 276 273 268 267 264 261 259 256 247 236 238 242 238 233 225 220
213 219 224 229 234 239 245 250 256 260 263 264 269 272 273 274 276 279 280 281 279 277 278 276 272 263 251 249 255 265 266 254 241 243 247 244 231 208
214 218 223 227 231 236 242 249 255 261 264 266 269 273 275 276 277 278 280 279 279 280 281 280 274 261 254 252 256 260 263 260 249 237 236 236 241 253